Time,TemperatureF,DewpointF,PressureIn,WindDirection,WindDirectionDegrees,WindSpeedMPH,WindSpeedGustMPH,Humidity,HourlyPrecipIn,Conditions,Clouds,dailyrainin,SoftwareType,DateUTC
2013-05-29 00:03:00,76.0,-99.9,30.12,North,-999,-999.0,-999.0,-999,-99.99,,,-99.99,,2013-05-29 04:03:00,
2013-05-29 00:13:00,-999.0,-99.9,30.12,East,99,11.0,16.0,-999,-99.99,,,-99.99,,2013-05-29 04:13:00,
2013-05-29 00:23:00,-999.0,-99.9,30.12,ESE,102,6.0,16.0,-999,-99.99,,,-99.99,,2013-05-29 04:23:00,
2013-05-29 00:42:00,-999.0,-99.9,30.12,East,99,9.0,13.0,-999,-99.99,,,-99.99,,2013-05-29 04:42:00,
2013-05-29 00:53:00,76.0,-99.9,30.12,North,-999,-999.0,-999.0,-999,-99.99,,,-99.99,,2013-05-29 04:53:00,
2013-05-29 01:22:00,-999.0,-99.9,30.12,East,94,12.0,16.0,-999,-99.99,,,-99.99,,2013-05-29 05:22:00,
2013-05-29 01:33:00,75.0,-99.9,30.12,North,-999,-999.0,-999.0,-999,-99.99,,,-99.99,,2013-05-29 05:33:00,
2013-05-29 01:42:00,-999.0,-99.9,30.12,East,98,10.0,17.0,-999,-99.99,,,-99.99,,2013-05-29 05:42:00,
2013-05-29 01:52:00,-999.0,-99.9,30.11,East,97,14.0,18.0,-999,-99.99,,,-99.99,,2013-05-29 05:52:00,
2013-05-29 02:22:00,-999.0,-99.9,30.11,East,96,10.0,15.0,-999,-99.99,,,-99.99,,2013-05-29 06:22:00,
2013-05-29 02:32:00,75.0,-99.9,30.10,North,-999,-999.0,-999.0,-999,-99.99,,,-99.99,,2013-05-29 06:32:00,
2013-05-29 02:42:00,-999.0,-99.9,30.10,East,95,10.0,15.0,-999,-99.99,,,-99.99,,2013-05-29 06:42:00,
2013-05-29 02:52:00,-999.0,-99.9,30.10,ESE,106,7.0,13.0,-999,-99.99,,,-99.99,,2013-05-29 06:52:00,
2013-05-29 03:22:00,75.0,-99.9,30.10,North,-999,-999.0,-999.0,-999,-99.99,,,-99.99,,2013-05-29 07:22:00,
2013-05-29 03:35:00,-999.0,-99.9,30.10,ESE,110,8.0,13.0,-999,-99.99,,,-99.99,,2013-05-29 07:35:00,
2013-05-29 03:42:00,-999.0,-99.9,30.10,ESE,104,7.0,12.0,-999,-99.99,,,-99.99,,2013-05-29 07:42:00,
2013-05-29 03:53:00,74.0,-99.9,30.09,North,-999,-999.0,-999.0,-999,-99.99,,,-99.99,,2013-05-29 07:53:00,
2013-05-29 04:11:00,-999.0,-99.9,30.09,ESE,107,7.0,11.0,-999,-99.99,,,-99.99,,2013-05-29 08:11:00,
2013-05-29 04:22:00,74.0,-99.9,30.08,North,-999,-999.0,-999.0,-999,-99.99,,,-99.99,,2013-05-29 08:22:00,
2013-05-29 04:32:00,-999.0,-99.9,30.08,East,100,8.0,13.0,-999,-99.99,,,-99.99,,2013-05-29 08:32:00,
2013-05-29 04:42:00,74.0,-99.9,30.08,North,-999,-999.0,-999.0,-999,-99.99,,,-99.99,,2013-05-29 08:42:00,
2013-05-29 04:52:00,74.0,-99.9,30.07,North,-999,-999.0,-999.0,-999,-99.99,,,-99.99,,2013-05-29 08:52:00,
2013-05-29 05:02:00,-999.0,-99.9,30.07,ESE,107,8.0,13.0,-999,-99.99,,,-99.99,,2013-05-29 09:02:00,
2013-05-29 05:22:00,-999.0,-99.9,30.07,ESE,108,9.0,14.0,-999,-99.99,,,-99.99,,2013-05-29 09:22:00,
2013-05-29 05:33:00,-999.0,-99.9,30.07,ESE,108,8.0,13.0,-999,-99.99,,,-99.99,,2013-05-29 09:33:00,
2013-05-29 05:42:00,74.0,-99.9,30.07,North,-999,-999.0,-999.0,-999,-99.99,,,-99.99,,2013-05-29 09:42:00,
2013-05-29 05:53:00,-999.0,-99.9,30.07,ESE,108,10.0,13.0,-999,-99.99,,,-99.99,,2013-05-29 09:53:00,
2013-05-29 06:03:00,-999.0,-99.9,30.07,ESE,105,8.0,15.0,-999,-99.99,,,-99.99,,2013-05-29 10:03:00,
2013-05-29 06:22:00,-999.0,-99.9,30.07,ESE,113,9.0,16.0,-999,-99.99,,,-99.99,,2013-05-29 10:22:00,
2013-05-29 06:42:00,74.0,-99.9,30.08,North,-999,-999.0,-999.0,-999,-99.99,,,-99.99,,2013-05-29 10:42:00,
2013-05-29 06:53:00,-999.0,-99.9,30.08,ESE,103,8.0,13.0,-999,-99.99,,,-99.99,,2013-05-29 10:53:00,
2013-05-29 07:02:00,74.0,-99.9,30.08,North,-999,-999.0,-999.0,-999,-99.99,,,-99.99,,2013-05-29 11:02:00,
2013-05-29 07:12:00,-999.0,-99.9,30.08,ESE,103,8.0,15.0,-999,-99.99,,,-99.99,,2013-05-29 11:12:00,
2013-05-29 07:22:00,-999.0,-99.9,30.08,ESE,103,8.0,14.0,-999,-99.99,,,-99.99,,2013-05-29 11:22:00,
2013-05-29 07:32:00,-999.0,-99.9,30.09,ESE,106,7.0,13.0,-999,-99.99,,,-99.99,,2013-05-29 11:32:00,
2013-05-29 07:42:00,-999.0,-99.9,30.09,ESE,107,6.0,11.0,-999,-99.99,,,-99.99,,2013-05-29 11:42:00,
2013-05-29 07:52:00,-999.0,-99.9,30.10,ESE,110,9.0,12.0,-999,-99.99,,,-99.99,,2013-05-29 11:52:00,
2013-05-29 08:01:00,-999.0,-99.9,30.10,ESE,106,7.0,11.0,-999,-99.99,,,-99.99,,2013-05-29 12:01:00,
2013-05-29 08:22:00,75.0,-99.9,30.11,North,-999,-999.0,-999.0,-999,-99.99,,,-99.99,,2013-05-29 12:22:00,
2013-05-29 08:32:00,-999.0,-99.9,30.11,East,94,11.0,15.0,-999,-99.99,,,-99.99,,2013-05-29 12:32:00,
2013-05-29 08:42:00,76.0,-99.9,30.12,North,-999,-999.0,-999.0,-999,-99.99,,,-99.99,,2013-05-29 12:42:00,
2013-05-29 08:52:00,-999.0,-99.9,30.12,East,94,12.0,16.0,-999,-99.99,,,-99.99,,2013-05-29 12:52:00,
2013-05-29 09:02:00,77.0,-99.9,30.11,North,-999,-999.0,-999.0,-999,-99.99,,,-99.99,,2013-05-29 13:02:00,
2013-05-29 09:22:00,-999.0,-99.9,30.12,East,87,12.0,15.0,-999,-99.99,,,-99.99,,2013-05-29 13:22:00,
2013-05-29 09:32:00,-999.0,-99.9,30.12,East,83,12.0,16.0,-999,-99.99,,,-99.99,,2013-05-29 13:32:00,
2013-05-29 09:42:00,77.0,-99.9,30.12,North,-999,-999.0,-999.0,-999,-99.99,,,-99.99,,2013-05-29 13:42:00,
2013-05-29 09:53:00,78.0,-99.9,30.12,North,-999,-999.0,-999.0,-999,-99.99,,,-99.99,,2013-05-29 13:53:00,
2013-05-29 10:02:00,-999.0,-99.9,30.12,East,94,11.0,15.0,-999,-99.99,,,-99.99,,2013-05-29 14:02:00,
2013-05-29 10:22:00,-999.0,-99.9,30.12,East,95,8.0,12.0,-999,-99.99,,,-99.99,,2013-05-29 14:22:00,
2013-05-29 10:32:00,-999.0,-99.9,30.12,East,89,10.0,14.0,-999,-99.99,,,-99.99,,2013-05-29 14:32:00,
2013-05-29 10:42:00,-999.0,-99.9,30.12,East,93,10.0,13.0,-999,-99.99,,,-99.99,,2013-05-29 14:42:00,
2013-05-29 10:52:00,-999.0,-99.9,30.12,East,100,6.0,12.0,-999,-99.99,,,-99.99,,2013-05-29 14:52:00,
2013-05-29 11:11:00,-999.0,-99.9,30.12,ESE,109,7.0,12.0,-999,-99.99,,,-99.99,,2013-05-29 15:11:00,
2013-05-29 11:22:00,-999.0,-99.9,30.12,ESE,109,7.0,14.0,-999,-99.99,,,-99.99,,2013-05-29 15:22:00,
2013-05-29 11:33:00,82.0,-99.9,30.12,North,-999,-999.0,-999.0,-999,-99.99,,,-99.99,,2013-05-29 15:33:00,
2013-05-29 11:43:00,82.0,-99.9,30.12,North,-999,-999.0,-999.0,-999,-99.99,,,-99.99,,2013-05-29 15:43:00,
2013-05-29 11:53:00,82.0,-99.9,30.12,North,-999,-999.0,-999.0,-999,-99.99,,,-99.99,,2013-05-29 15:53:00,
2013-05-29 12:03:00,-999.0,-99.9,30.12,ESE,114,9.0,14.0,-999,-99.99,,,-99.99,,2013-05-29 16:03:00,
2013-05-29 12:13:00,-999.0,-99.9,30.12,ESE,110,8.0,13.0,-999,-99.99,,,-99.99,,2013-05-29 16:13:00,
2013-05-29 12:22:00,82.0,-99.9,30.12,North,-999,-999.0,-999.0,-999,-99.99,,,-99.99,,2013-05-29 16:22:00,
2013-05-29 12:33:00,81.0,-99.9,30.12,North,-999,-999.0,-999.0,-999,-99.99,,,-99.99,,2013-05-29 16:33:00,
2013-05-29 12:42:00,-999.0,-99.9,30.12,SE,131,14.0,16.0,-999,-99.99,,,-99.99,,2013-05-29 16:42:00,
2013-05-29 12:52:00,-999.0,-99.9,30.12,ESE,120,10.0,16.0,-999,-99.99,,,-99.99,,2013-05-29 16:52:00,
2013-05-29 13:02:00,-999.0,-99.9,30.12,ESE,122,9.0,12.0,-999,-99.99,,,-99.99,,2013-05-29 17:02:00,
2013-05-29 13:12:00,-999.0,-99.9,30.11,ESE,118,8.0,12.0,-999,-99.99,,,-99.99,,2013-05-29 17:12:00,
2013-05-29 13:22:00,84.0,-99.9,30.11,North,-999,-999.0,-999.0,-999,-99.99,,,-99.99,,2013-05-29 17:22:00,
2013-05-29 13:43:00,-999.0,-99.9,30.11,ESE,114,9.0,13.0,-999,-99.99,,,-99.99,,2013-05-29 17:43:00,
2013-05-29 13:52:00,84.0,-99.9,30.11,North,-999,-999.0,-999.0,-999,-99.99,,,-99.99,,2013-05-29 17:52:00,
2013-05-29 14:22:00,-999.0,-99.9,30.10,SE,127,17.0,21.0,-999,-99.99,,,-99.99,,2013-05-29 18:22:00,
2013-05-29 14:32:00,84.0,-99.9,30.10,North,-999,-999.0,-999.0,-999,-99.99,,,-99.99,,2013-05-29 18:32:00,
2013-05-29 14:42:00,-999.0,-99.9,30.10,ESE,114,11.0,15.0,-999,-99.99,,,-99.99,,2013-05-29 18:42:00,
2013-05-29 14:52:00,-999.0,-99.9,30.10,ESE,120,12.0,18.0,-999,-99.99,,,-99.99,,2013-05-29 18:52:00,
2013-05-29 15:02:00,-999.0,-99.9,30.09,ESE,116,10.0,14.0,-999,-99.99,,,-99.99,,2013-05-29 19:02:00,
2013-05-29 15:22:00,-999.0,-99.9,30.09,East,93,16.0,21.0,-999,-99.99,,,-99.99,,2013-05-29 19:22:00,
2013-05-29 15:32:00,-999.0,-99.9,30.09,East,82,15.0,21.0,-999,-99.99,,,-99.99,,2013-05-29 19:32:00,
2013-05-29 15:44:00,80.0,-99.9,30.09,North,-999,-999.0,-999.0,-999,-99.99,,,-99.99,,2013-05-29 19:44:00,
2013-05-29 15:53:00,-999.0,-99.9,30.09,ENE,69,9.0,16.0,-999,-99.99,,,-99.99,,2013-05-29 19:53:00,
2013-05-29 16:23:00,-999.0,-99.9,30.07,ENE,60,12.0,18.0,-999,-99.99,,,-99.99,,2013-05-29 20:23:00,
2013-05-29 16:33:00,-999.0,-99.9,30.07,ENE,65,9.0,16.0,-999,-99.99,,,-99.99,,2013-05-29 20:33:00,
2013-05-29 16:53:00,81.0,-99.9,30.06,North,-999,-999.0,-999.0,-999,-99.99,,,-99.99,,2013-05-29 20:53:00,
2013-05-29 17:34:00,-999.0,-99.9,30.07,ENE,78,12.0,22.0,-999,-99.99,,,-99.99,,2013-05-29 21:34:00,
2013-05-29 17:44:00,82.0,-99.9,30.07,North,-999,-999.0,-999.0,-999,-99.99,,,-99.99,,2013-05-29 21:44:00,
2013-05-29 17:53:00,-999.0,-99.9,30.09,ESE,114,22.0,29.0,-999,-99.99,,,-99.99,,2013-05-29 21:53:00,
2013-05-29 18:03:00,-999.0,-99.9,30.09,ESE,118,20.0,27.0,-999,-99.99,,,-99.99,,2013-05-29 22:03:00,
2013-05-29 18:13:00,-999.0,-99.9,30.09,ESE,113,15.0,27.0,-999,-99.99,,,-99.99,,2013-05-29 22:13:00,
2013-05-29 18:23:00,-999.0,-99.9,30.09,ESE,112,13.0,24.0,-999,-99.99,,,-99.99,,2013-05-29 22:23:00,
2013-05-29 18:34:00,-999.0,-99.9,30.08,ESE,108,8.0,15.0,-999,-99.99,,,-99.99,,2013-05-29 22:34:00,
2013-05-29 18:43:00,-999.0,-99.9,30.08,East,94,13.0,19.0,-999,-99.99,,,-99.99,,2013-05-29 22:43:00,
2013-05-29 18:53:00,-999.0,-99.9,30.08,East,97,11.0,19.0,-999,-99.99,,,-99.99,,2013-05-29 22:53:00,
2013-05-29 19:02:00,-999.0,-99.9,30.07,East,101,9.0,19.0,-999,-99.99,,,-99.99,,2013-05-29 23:02:00,
2013-05-29 19:22:00,-999.0,-99.9,30.07,East,90,14.0,18.0,-999,-99.99,,,-99.99,,2013-05-29 23:22:00,
2013-05-29 19:33:00,-999.0,-99.9,30.07,East,90,14.0,17.0,-999,-99.99,,,-99.99,,2013-05-29 23:33:00,
2013-05-29 19:43:00,-999.0,-99.9,30.07,East,88,15.0,19.0,-999,-99.99,,,-99.99,,2013-05-29 23:43:00,
2013-05-29 19:53:00,-999.0,-99.9,30.07,East,85,14.0,18.0,-999,-99.99,,,-99.99,,2013-05-29 23:53:00,
2013-05-29 20:02:00,79.0,-99.9,30.07,North,-999,-999.0,-999.0,-999,-99.99,,,-99.99,,2013-05-30 00:02:00,
2013-05-29 20:12:00,-999.0,-99.9,30.07,East,92,14.0,18.0,-999,-99.99,,,-99.99,,2013-05-30 00:12:00,
2013-05-29 20:22:00,-999.0,-99.9,30.08,East,89,13.0,17.0,-999,-99.99,,,-99.99,,2013-05-30 00:22:00,
2013-05-29 20:42:00,-999.0,-99.9,30.07,East,91,14.0,20.0,-999,-99.99,,,-99.99,,2013-05-30 00:42:00,
2013-05-29 20:52:00,-999.0,-99.9,30.08,East,96,12.0,18.0,-999,-99.99,,,-99.99,,2013-05-30 00:52:00,
2013-05-29 21:11:00,-999.0,-99.9,30.08,ESE,103,8.0,13.0,-999,-99.99,,,-99.99,,2013-05-30 01:11:00,
2013-05-29 21:22:00,-999.0,-99.9,30.08,ESE,104,8.0,15.0,-999,-99.99,,,-99.99,,2013-05-30 01:22:00,
2013-05-29 21:42:00,-999.0,-99.9,30.08,ESE,103,9.0,17.0,-999,-99.99,,,-99.99,,2013-05-30 01:42:00,
2013-05-29 21:52:00,-999.0,-99.9,30.09,East,97,9.0,12.0,-999,-99.99,,,-99.99,,2013-05-30 01:52:00,
2013-05-29 22:22:00,-999.0,-99.9,30.10,East,93,13.0,17.0,-999,-99.99,,,-99.99,,2013-05-30 02:22:00,
2013-05-29 22:32:00,-999.0,-99.9,30.10,East,94,13.0,18.0,-999,-99.99,,,-99.99,,2013-05-30 02:32:00,
2013-05-29 22:42:00,-999.0,-99.9,30.10,East,94,13.0,18.0,-999,-99.99,,,-99.99,,2013-05-30 02:42:00,
2013-05-29 22:52:00,-999.0,-99.9,30.10,East,94,13.0,18.0,-999,-99.99,,,-99.99,,2013-05-30 02:52:00,
2013-05-29 23:02:00,-999.0,-99.9,30.10,East,91,13.0,18.0,-999,-99.99,,,-99.99,,2013-05-30 03:02:00,
2013-05-29 23:12:00,-999.0,-99.9,30.10,East,88,13.0,18.0,-999,-99.99,,,-99.99,,2013-05-30 03:12:00,
2013-05-29 23:22:00,77.0,-99.9,30.10,North,-999,-999.0,-999.0,-999,-99.99,,,-99.99,,2013-05-30 03:22:00,
2013-05-29 23:33:00,77.0,-99.9,30.10,North,-999,-999.0,-999.0,-999,-99.99,,,-99.99,,2013-05-30 03:33:00,
2013-05-29 23:43:00,-999.0,-99.9,30.10,East,93,15.0,18.0,-999,-99.99,,,-99.99,,2013-05-30 03:43:00,
2013-05-29 23:53:00,-999.0,-99.9,30.10,East,97,12.0,18.0,-999,-99.99,,,-99.99,,2013-05-30 03:53:00,